Location: Albuquerque Trailhead
(34.7934°N, 106.3736°W)
Time: 13:14:01
(UTC+00:00)

Cosmos 1782 - Pass Details

Date: 20 June 2021
Orbit: 537 x 550 km, 82.5° (Epoch: 30 July)

Event Time Altitude Azimuth Distance (km) Brightness Sun altitude
Rises 10:11:17 0° 344° (NNW) 2,715 6.8 -17.2°
Reaches altitude 10° 10:13:32 10° 337° (NNW) 1,820 5.8 -16.9°
Maximum altitude 10:17:17 40° 268° (W) 812 3.3 -16.4°
Enters shadow 10:18:24 32° 229° (SW) 944 3.4 -16.2°
